Погода Петровский Завод

Погода Петровский Завод : погода сейчас, прогноз погоды и архив. Всё, что Вы хотите узнать о погоде Петровский Завод!

Хотите узнать прогноз погоды Петровский Завод? Тогда Вам сюда: Погода Петровский Завод

Поиск расширенной информации на нашем сайте:

Другие новости

Новости СМИ2

Главная страница сайта

Новости сайта

03.07.2017

Напоминаем, что на нашем специализированном сайте Метеоцентр.Азия вы можете получить высокодетализированные автоматические прогнозы погоды по пунктам России, СНГ и мира в авиационном формате (включающие направление и скорость ветра, видимость, явления погоды, количество и форму облачности, нижнюю и верхнюю границу облачности).

Рекомендуем: шкуры чернобурки купить

Погода Петровский Завод - сегодня

Время (UTC), дата Ветер
(°,м/с) 
Видим.   Явления Облачность Т
(°С)
Тd
(°С)
f(%) Тe
(°С)
Pmin
(гПа)
dP
(гПа)
Po
(мм)
O2
(г/м3)
Тmin Tmax R s Состояние
почвы
21 11.12.17 020 (С) н/о    н/о 
-41.5 -45.9 62 -43  1050.9  0.1  700  335           
00 12.12.17 030 (СВ) 2000 м  дымка  ясно 
-41.7 -46.3 61 -43  1051.4  0.3  701  335  -42.2      22  равномерный
сухой снег
100% 
03 12.12.17 тихо ()   н/о    н/о 
-37.6 -41.6 66 -38  1049.9  0.5  701  330  -43.2         
06 12.12.17 180 (Ю) 20000 м    ясно 
-27.9 -32.4 65 -31  1043.3  -1.6  700  316           
09 12.12.17 тихо () {11}  н/о    н/о 
-30.2 -33.4 74 -30  1043.6  -0.7  699  319           
12 12.12.17 тихо ()   н/о  дым  ясно 
-34.5 -38.3 68 -35  1045.9  0.1  699  324    -25.8       
15 12.12.17 тихо ()   н/о    н/о 
-35.1 -38.9 68 -35  1045.5  -0.6  699  325           
18 12.12.17 тихо ()   н/о    10/0 верхняя 
[Cs]
-31.8 -35.4 70 -32  1043.3  -0.5  699  320           
21 12.12.17 тихо ()   н/о    н/о 
-29.6 -32.9 73 -30  1041.2  -0.9  698  317           
00 13.12.17 190 (Ю) н/о  слаб. снег  10/0 средняя 
[As op]
-25.8 -28.8 76 -29  1040.2  0.7  698  312  -36    0.6  22  равномерный
сухой снег
100% 
03 13.12.17 190 (Ю) н/о    н/о 
-23.4 -26.9 73 -26  1040.3  1.1  699  310           
06 13.12.17 190 (Ю) 10 км  слаб. снег  10/0 средняя 
[As trans]
-20.5 -24.2 72 -25  1039.3  0.3  699  306           
09 13.12.17 200 (Ю) н/о    н/о 
-21.3 -24.6 75 -26  1040.7  0.9  700  308           
12 13.12.17 200 (Ю) н/о  {снег}  8/0 средняя 
[Ac lent]
-23.1 -26 77 -28  1042.7  701  310    -20.3  0.6     
15 13.12.17 тихо ()   н/о    н/о 
-26.6 -29.4 77 -27  1044.8  0.5  701  315           
18 13.12.17 110 (В) н/о  слаб. снег  10/0 средняя 
[As op]
-26.2 -29 77 -27  1044.1  -0.5  701  314           
21 13.12.17 тихо ()   н/о    н/о 
-29.6 -32.9 73 -30  1045  -0.6  700  318           
00 14.12.17 200 (Ю) н/о  {снег}  8/5 600 м кучево-дожд., верхняя 
[Cb cap|Ci sp]
-23.7 -26.4 78 -30  1042.1  0.1  700  311  -29.8    0.0  22  равномерный
сухой снег
100% 
03 14.12.17 260 (З) н/о    н/о 
-20.9 -24.1 75 -28  1041.4  0.4  701  307           
06 14.12.17 260 (З) 6{10}  20000 м  позёмок  8/0 средняя 
[Ac As]
-18.9 -22.4 74 -26  1039.7  -0.8  700  305           
09 14.12.17 280 (З) 7-10{11}  н/о    н/о 
-19.1 -22.3 76 -27  1040.2  0.4  700  305           
12 14.12.17 260 (З) 3{10}  н/о  {снег}  1/0 верхняя 
[Ci sp]
-19.2 -22.3 76 -23  1041.7  1.3  701  306    -17.1  0.0     
15 14.12.17 020 (С) н/о    н/о 
-27.3 -30.2 76 -28  1045.6  0.2  702  316           
18 14.12.17 270 (З) н/о  слаб. ливневой снег  10/10 600 м кучево-дожд. 
[Cb cap]
-19.2 -22.3 76 -25  1041.7  -0.2  701  306           
21 14.12.17 260 (З) н/о    н/о 
-18.8 -22.7 71 -19  1041.5  701  305           
Время (UTC), дата Ветер
(°,м/с) 
Видим.   Явления Облачность Т
(°С)
Тd
(°С)
f(%) Тe
(°С)
Pmin
(гПа)
dP
(гПа)
Po
(мм)
O2
(г/м3)
Тmin Tmax R s Состояние
почвы

Для получения пояснительной информации подведите курсор к названию столбца.

ПОГОДА Петровский Завод - архив

Всё, что Вы хотите узнать о погоде Петровский Завод - удобно и подробно!

Выберите нужную дату (начиная с 1 января 2015* года) и нажмите кнопку "Найти".
Будут отображены архивные сводки погоды по пункту Петровский Завод, начиная с указанной даты.


Отображать данные в формате CSV (для использования в таблицах Excel)


Внимание! Наш архив погоды предназначен исключительно для личного некоммерческого использования в познавательных целях. Если Вам необходимы официальные справки о состоянии погоды (для производственных, юридических, коммерческих и т.п. целей), обращайтесь в органы Росгидромета.

*Примечание: данная дата относится к архиву по метеостанциям СССР (Россия, СНГ, Балтия).
Архив по метеостанциям Зарубежной Европы и Азии (кроме Китая) хранится 10 дней, по другим регионам земного шара (Китай, Африка, Америка, Австралия, Океания) - 1 день.

Петровский Завод - район местоположения метеостанции


Название, широта, долгота, высота метеостанции:
Петровский Завод 51.3°ш. 108.9°д. 806 м над ур. моря [Российская Федерация]

Дополнительная информация

В oтличие oт бoльшинства пoгoдных сайтoв мы публикуем пoдрoбную метеoинфoрмацию в детальнoм прoфессиoнальнoм фoрмате.

Характеристики температуры и влажнoсти вoздуха измеряются на высoте 2 м в тени вдали oт зданий и деревьев.
Скoрoсть ветра измеряется на высoте 10 м (на урoвне рoста челoвека скoрoсть ветра ниже в 1.5-2 раза). Если метеoстанция нахoдится в гoрoде или в лесу, тo скoрoсть ветра занижена на 2-4 м/с пo сравнению с oткрытым местoм. Скoрoсть ветра над акватoриями крупных рек и oзёр, а также на вершинах хoлмoв на 2-5 м/с выше, чем в oбычных услoвиях.
Атмoсфернoе давление в разных тoчках местнoсти мoжет значительнo oтличаться oт давления на метеoстанции, в зависимoсти oт услoвий рельефа (при пoдъёме на 10 м давление пoнижается примернo на 1 мм рт.ст.).